Location: Home
(42.5358°N, 72.7383°W)
Time: 18:23:06
(UTC-05:00)

A-11 Canister half - Pass Details

Date: 06 December 2021
Orbit: 1516 x 1684 km, 47.2° (Epoch: 18 January)

Event Time Altitude Azimuth Distance (km) Brightness Sun altitude
Rises 11:34:18 0° 294° (WNW) 4,869 11.4 24.9°
Reaches altitude 10° 11:37:25 10° 294° (WNW) 3,899 11.0 24.9°
Maximum altitude 11:47:28 79° 209° (SSW) 1,705 9.9 24.9°
Drops below altitude 10° 11:57:37 10° 125° (SE) 3,940 11.7 24.8°
Sets 12:00:46 0° 124° (SE) 4,921 12.0 24.7°
